CW4553 Weather Reports


time (UTC)temp
C
wind
direction
speed
KPH
gust
KPH
rain 1hr
cm
rain 24hr
cm
rain mn
cm
humidity
%
barometer
mb
20260507190951 25 18 6.4 9.7 0.00 0.00 0.00 70 1020.3
20260507190449 25 9 8.0 12.9 0.00 0.00 0.00 70 1020.1
20260507185948 25 34 4.8 9.7 0.00 0.00 0.00 71 1020.2
20260507185445 25 29 6.4 11.3 0.00 0.00 0.00 70 1020.2
20260507184941 25 33 8.0 11.3 0.00 0.00 0.00 69 1019.9
20260507184439 25 22 6.4 11.3 0.00 0.00 0.00 70 1020.0
20260507183937 25 339 9.7 12.9 0.00 0.00 0.00 69 1020.3
20260507183434 25 314 3.2 12.9 0.00 0.00 0.00 71 1020.1
20260507182931 25 42 4.8 9.7 0.00 0.00 0.00 71 1020.1
20260507182426 25 10 6.4 11.3 0.00 0.00 0.00 71 1020.2
20260507181923 24 64 4.8 6.4 0.00 0.00 0.00 72 1020.0
20260507181419 24 295 3.2 6.4 0.00 0.00 0.00 71 1020.0
20260507180916 24 9 6.4 12.9 0.00 0.00 0.00 71 1020.1
20260507180413 24 313 3.2 9.7 0.00 0.00 0.00 72 1020.0
20260507175908 23 13 4.8 9.7 0.00 0.00 0.00 74 1020.0
20260507175405 23 23 4.8 9.7 0.00 0.00 0.00 75 1020.0
20260507174903 23 336 4.8 11.3 0.00 0.00 0.00 75 1019.8
20260507174400 23 41 9.7 14.5 0.00 0.00 0.00 75 1019.9
20260507173858 23 23 6.4 6.4 0.00 0.00 0.00 76 1019.8
20260507173355 23 30 6.4 11.3 0.00 0.00 0.00 76 1019.9
20260507172851 22 0 9.7 14.5 0.00 0.00 0.00 76 1019.8
20260507172348 22 23 6.4 9.7 0.00 0.00 0.00 78 1019.7
20260507171844 22 6 8.0 11.3 0.00 0.00 0.00 79 1019.7
20260507171340 21 20 6.4 9.7 0.00 0.00 0.00 81 1019.6
20260507170838 21 36 4.8 6.4 0.00 0.00 0.00 82 1019.6
20260507170334 21 339 4.8 6.4 0.00 0.00 0.00 82 1019.5
20260507165830 21 8 3.2 9.7 0.00 0.00 0.00 83 1019.2
20260507165326 21 12 6.4 9.7 0.00 0.00 0.00 83 1019.3
20260507164822 21 25 6.4 9.7 0.00 0.00 0.00 84 1019.1
20260507164319 21 22 6.4 11.3 0.00 0.00 0.00 84 1019.0
20260507163817 20 278 3.2 11.3 0.00 0.00 0.00 85 1018.8
20260507163314 20 328 6.4 11.3 0.00 0.00 0.00 86 1019.0
20260507162810 20 33 4.8 9.7 0.00 0.00 0.00 86 1019.0
20260507162307 20 12 4.8 9.7 0.00 0.00 0.00 86 1018.8
20260507161803 20 36 6.4 12.9 0.00 0.00 0.00 87 1018.7
20260507161300 20 311 6.4 11.3 0.00 0.00 0.00 87 1018.8
20260507160755 19 346 8.0 9.7 0.00 0.00 0.00 87 1018.6
20260507160252 19 357 8.0 12.9 0.00 0.00 0.00 87 1018.5
20260507155748 19 17 6.4 11.3 0.00 0.00 0.00 86 1018.4
20260507155244 19 33 8.0 11.3 0.00 0.00 0.00 86 1018.5
20260507154741 20 31 8.0 12.9 0.00 0.00 0.00 86 1018.3
20260507154239 20 4 9.7 12.9 0.00 0.00 0.00 86 1018.3
20260507153735 20 12 6.4 11.3 0.00 0.00 0.00 86 1018.2
20260507153231 20 27 8.0 14.5 0.00 0.00 0.00 85 1018.2
20260507152728 20 20 8.0 14.5 0.00 0.00 0.00 85 1018.2
20260507152224 20 20 8.0 12.9 0.00 0.00 0.00 85 1018.0
20260507151720 20 32 11.3 12.9 0.00 0.00 0.00 85 1018.0
20260507151217 20 16 6.4 11.3 0.00 0.00 0.00 85 1018.0
20260507150714 20 34 8.0 11.3 0.00 0.00 0.00 85 1018.0
20260507150211 20 7 4.8 9.7 0.00 0.00 0.00 85 1017.8
20260507145706 20 10 6.4 6.4 0.00 0.00 0.00 85 1017.8
20260507145203 20 315 4.8 9.7 0.00 0.00 0.00 85 1017.6
20260507144700 20 33 6.4 9.7 0.00 0.00 0.00 85 1017.4
20260507144158 20 9 4.8 9.7 0.00 0.00 0.00 85 1017.5
20260507143655 20 2 4.8 9.7 0.00 0.00 0.00 85 1017.4
20260507143152 20 29 4.8 6.4 0.00 0.00 0.00 84 1017.5
20260507142647 20 348 4.8 6.4 0.00 0.00 0.00 84 1017.6
20260507142144 20 17 3.2 9.7 0.00 0.00 0.00 84 1017.5
20260507141641 20 307 1.6 6.4 0.00 0.00 0.00 84 1017.6
20260507141137 20 9 4.8 4.8 0.00 0.00 0.00 84 1017.6
20260507140634 20 331 4.8 4.8 0.00 0.00 0.00 84 1017.6
20260507140131 20 351 3.2 4.8 0.00 0.00 0.00 83 1017.8
20260507135628 20 11 3.2 4.8 0.00 0.00 0.00 83 1017.8
20260507135126 20 6 3.2 6.4 0.00 0.00 0.00 83 1017.8
20260507134622 20 313 4.8 6.4 0.00 0.00 0.00 83 1017.8
20260507134118 20 309 3.2 4.8 0.00 0.00 0.00 82 1017.9
20260507133614 21 7 3.2 4.8 0.00 0.00 0.00 82 1017.8
20260507133112 21 328 3.2 6.4 0.00 0.00 0.00 82 1018.0
20260507132608 21 313 1.6 3.2 0.00 0.00 0.00 82 1018.0
20260507132105 21 281 3.2 4.8 0.00 0.00 0.00 82 1018.0
20260507131602 21 346 3.2 4.8 0.00 0.00 0.00 82 1017.9
20260507131059 21 274 4.8 4.8 0.00 0.00 0.00 82 1018.0
20260507130556 21 23 3.2 6.4 0.00 0.00 0.00 81 1018.0
20260507130054 21 20 4.8 6.4 0.00 0.00 0.00 81 1018.0
20260507125553 21 287 4.8 9.7 0.00 0.00 0.00 82 1018.1
20260507125050 21 28 3.2 4.8 0.00 0.00 0.00 81 1018.2
20260507124546 21 343 4.8 6.4 0.00 0.00 0.00 81 1018.2
20260507124044 21 263 4.8 4.8 0.00 0.00 0.00 81 1018.2
20260507123541 21 322 3.2 6.4 0.00 0.00 0.00 81 1018.3
20260507123038 21 300 4.8 6.4 0.00 0.00 0.00 81 1018.4
20260507122533 21 38 3.2 6.4 0.00 0.00 0.00 81 1018.3
20260507122029 21 327 3.2 9.7 0.00 0.00 0.00 81 1018.4
20260507121525 21 356 4.8 6.4 0.00 0.00 0.00 81 1018.3
20260507121021 21 27 3.2 4.8 0.00 0.00 0.00 81 1018.4
20260507120518 21 344 4.8 4.8 0.00 0.00 0.00 81 1018.5
20260507120015 21 277 3.2 6.4 0.00 0.00 0.00 81 1018.5
20260507115511 21 33 4.8 6.4 0.00 0.00 0.00 81 1018.6
20260507115007 21 330 3.2 4.8 0.00 0.00 0.00 81 1018.5
20260507114503 21 27 3.2 6.4 0.00 0.00 0.00 81 1018.5
20260507114000 21 341 4.8 6.4 0.00 0.00 0.00 81 1018.7
20260507113457 21 290 3.2 6.4 0.00 0.00 0.00 81 1018.6
20260507112954 21 351 6.4 6.4 0.00 0.00 0.00 81 1018.9
20260507112452 21 29 4.8 9.7 0.00 0.00 0.00 81 1018.9
20260507111948 21 343 3.2 6.4 0.00 0.00 0.00 81 1018.9
20260507111446 21 344 4.8 9.7 0.00 0.00 0.00 81 1019.0
20260507110942 21 9 6.4 9.7 0.00 0.00 0.00 81 1018.9
20260507110439 21 8 4.8 6.4 0.00 0.00 0.00 81 1019.0
20260507105935 21 12 4.8 6.4 0.00 0.00 0.00 81 1019.1
20260507105432 21 16 3.2 6.4 0.00 0.00 0.00 81 1019.1
20260507104929 21 326 6.4 9.7 0.00 0.00 0.00 80 1019.1
20260507104426 21 18 6.4 9.7 0.00 0.00 0.00 80 1019.2
20260507103926 21 337 3.2 11.3 0.00 0.00 0.00 80 1019.1
20260507103424 21 25 8.0 11.3 0.00 0.00 0.00 80 1018.9
20260507102920 21 42 6.4 9.7 0.00 0.00 0.00 80 1019.1
20260507102417 21 327 6.4 9.7 0.00 0.00 0.00 80 1019.3
20260507101913 21 25 8.0 11.3 0.00 0.00 0.00 80 1019.3
20260507101408 21 0 6.4 9.7 0.00 0.00 0.00 80 1019.2
20260507100905 21 30 6.4 11.3 0.00 0.00 0.00 80 1019.3
20260507100403 21 16 8.0 9.7 0.00 0.00 0.00 80 1019.3
20260507095901 21 40 6.4 9.7 0.00 0.00 0.00 80 1019.6
20260507095357 21 29 8.0 11.3 0.00 0.00 0.00 80 1019.4
20260507094855 21 11 9.7 12.9 0.00 0.00 0.00 80 1019.6
20260507094351 21 354 3.2 6.4 0.00 0.00 0.00 79 1019.5
20260507093848 21 32 6.4 11.3 0.00 0.00 0.00 79 1019.5
20260507093346 21 6 8.0 12.9 0.00 0.00 0.00 79 1019.5
20260507092844 21 354 8.0 11.3 0.00 0.00 0.00 79 1019.6
20260507092340 21 358 6.4 11.3 0.00 0.00 0.00 79 1019.7
20260507091836 21 15 8.0 11.3 0.00 0.00 0.00 79 1019.7
20260507091333 21 8 6.4 11.3 0.00 0.00 0.00 78 1019.7
20260507090829 21 10 6.4 11.3 0.00 0.00 0.00 78 1019.8
20260507090325 22 7 6.4 11.3 0.00 0.00 0.00 78 1019.7
20260507085822 22 322 4.8 12.9 0.00 0.00 0.00 78 1019.7
20260507085319 21 44 11.3 14.5 0.00 0.00 0.00 78 1019.7
20260507084817 21 27 8.0 12.9 0.00 0.00 0.00 78 1019.7
20260507084313 21 13 8.0 11.3 0.00 0.00 0.00 78 1019.8
20260507083810 21 18 6.4 9.7 0.00 0.00 0.00 78 1019.7
20260507083307 21 342 8.0 12.9 0.00 0.00 0.00 78 1019.9
20260507082803 21 30 8.0 11.3 0.00 0.00 0.00 78 1019.7
20260507082259 21 357 8.0 12.9 0.00 0.00 0.00 78 1019.7
20260507081756 22 45 11.3 14.5 0.00 0.00 0.00 78 1019.8
20260507081252 22 336 6.4 12.9 0.00 0.00 0.00 78 1019.5
20260507080749 22 48 8.0 12.9 0.00 0.00 0.00 78 1019.6
20260507080245 22 1 9.7 12.9 0.00 0.00 0.00 78 1019.6
20260507075740 22 31 8.0 11.3 0.00 0.00 0.00 78 1019.7
20260507075237 22 13 9.7 14.5 0.00 0.00 0.00 78 1019.6
20260507074733 22 313 8.0 12.9 0.00 0.00 0.00 78 1019.8
20260507074231 22 41 8.0 12.9 0.00 0.00 0.00 78 1019.6
20260507073727 22 320 6.4 9.7 0.00 0.00 0.00 79 1019.7
20260507073224 21 48 8.0 11.3 0.00 0.00 0.00 79 1019.5
20260507072722 21 329 9.7 11.3 0.00 0.00 0.00 79 1019.7
20260507072219 21 296 6.4 12.9 0.00 0.00 0.00 80 1019.6
20260507071717 21 2 8.0 12.9 0.00 0.00 0.00 80 1019.5
20260507071213 21 350 6.4 12.9 0.00 0.00 0.00 80 1019.5
20260507070710 21 354 6.4 11.3 0.00 0.00 0.00 80 1019.3
20260507070207 21 354 8.0 12.9 0.00 0.00 0.00 80 1019.3
20260507065703 21 18 6.4 11.3 0.00 0.00 0.00 81 1019.2
20260507065200 21 27 6.4 11.3 0.00 0.00 0.00 81 1019.1
20260507064657 21 12 6.4 11.3 0.00 0.00 0.00 80 1019.1
20260507064156 21 40 8.0 12.9 0.00 0.00 0.00 80 1019.0
20260507063653 22 32 8.0 11.3 0.00 0.00 0.00 80 1019.0
20260507063150 22 4 6.4 14.5 0.00 0.00 0.00 80 1019.0
20260507062647 22 6 6.4 12.9 0.00 0.00 0.00 81 1019.2
20260507062144 22 359 8.0 14.5 0.00 0.00 0.00 81 1018.7
20260507061642 22 34 8.0 12.9 0.00 0.00 0.00 81 1018.8
20260507061140 22 359 6.4 11.3 0.00 0.00 0.00 81 1018.8
20260507060638 22 342 8.0 11.3 0.00 0.00 0.00 81 1018.5
20260507060134 22 34 9.7 14.5 0.00 0.00 0.00 81 1018.4
20260507055629 22 5 8.0 11.3 0.00 0.00 0.00 81 1018.5
20260507055126 22 324 6.4 12.9 0.00 0.00 0.00 81 1018.5
20260507054621 22 331 6.4 12.9 0.00 0.00 0.00 81 1018.4
20260507054119 22 23 11.3 14.5 0.00 0.00 0.00 81 1018.5
20260507053617 22 25 9.7 14.5 0.00 0.00 0.00 81 1018.3
20260507053115 22 36 9.7 14.5 0.00 0.00 0.00 81 1018.1
20260507052613 22 15 6.4 11.3 0.00 0.00 0.00 80 1018.3
20260507052109 22 0 4.8 11.3 0.00 0.00 0.00 80 1018.1
20260507051607 22 26 6.4 11.3 0.00 0.00 0.00 80 1018.2
20260507051103 22 43 6.4 14.5 0.00 0.00 0.00 80 1018.3
20260507050600 22 328 4.8 11.3 0.00 0.00 0.00 80 1018.0
20260507050056 22 7 9.7 12.9 0.00 0.00 0.00 80 1018.0
20260507045553 22 20 4.8 11.3 0.00 0.00 0.00 80 1017.9
20260507045050 22 352 4.8 9.7 0.00 0.00 0.00 79 1017.9
20260507044547 22 33 9.7 12.9 0.00 0.00 0.00 79 1017.8
20260507044044 22 342 6.4 14.5 0.00 0.00 0.00 79 1017.9
20260507043539 22 48 8.0 12.9 0.00 0.00 0.00 79 1017.5
20260507043037 22 14 6.4 14.5 0.00 0.00 0.00 80 1017.4
20260507042533 22 26 8.0 11.3 0.00 0.00 0.00 80 1017.5
20260507042029 22 37 8.0 12.9 0.00 0.00 0.00 80 1017.5
20260507041526 22 345 9.7 11.3 0.00 0.00 0.00 80 1017.3
20260507041023 22 38 8.0 14.5 0.00 0.00 0.00 80 1017.2
20260507040519 22 323 11.3 14.5 0.00 0.00 0.00 80 1017.2
20260507040015 22 13 6.4 11.3 0.00 0.00 0.00 80 1017.3
20260507035511 22 30 8.0 17.7 0.00 0.00 0.00 79 1017.2
20260507035008 22 25 9.7 14.5 0.00 0.00 0.00 79 1017.1
20260507034505 22 300 8.0 12.9 0.00 0.00 0.00 79 1016.9
20260507034003 22 337 6.4 14.5 0.00 0.00 0.00 79 1016.8
20260507033501 22 25 8.0 11.3 0.00 0.00 0.00 80 1016.8
20260507032957 22 9 11.3 14.5 0.00 0.00 0.00 80 1017.0
20260507032454 22 31 12.9 16.1 0.00 0.00 0.00 80 1016.7
20260507031950 22 3 6.4 16.1 0.00 0.00 0.00 80 1016.8
20260507031447 22 24 8.0 16.1 0.00 0.00 0.00 80 1016.9
20260507030944 22 14 12.9 16.1 0.00 0.00 0.00 80 1016.9
20260507030441 22 343 8.0 12.9 0.00 0.00 0.00 80 1016.7
20260507025938 22 10 9.7 22.5 0.00 0.00 0.00 80 1016.7
20260507025435 22 5 11.3 16.1 0.00 0.00 0.00 80 1016.7
20260507024933 22 335 9.7 16.1 0.00 0.00 0.00 80 1016.6
20260507024430 22 1 11.3 17.7 0.00 0.00 0.00 80 1016.6
20260507023926 22 339 6.4 14.5 0.00 0.00 0.00 80 1016.7
20260507023423 22 17 9.7 12.9 0.00 0.00 0.00 80 1016.6
20260507022920 22 349 14.5 16.1 0.00 0.00 0.00 80 1016.7
20260507022417 22 35 11.3 16.1 0.00 0.00 0.00 81 1016.6
20260507021913 22 9 9.7 17.7 0.00 0.00 0.00 81 1016.7
20260507021408 22 18 12.9 16.1 0.00 0.00 0.00 80 1016.6
20260507020906 22 45 16.1 24.1 0.00 0.00 0.00 80 1016.7
20260507020402 22 26 9.7 20.9 0.00 0.00 0.00 80 1016.6
20260507015859 22 39 14.5 17.7 0.00 0.00 0.00 80 1016.8
20260507015358 22 15 11.3 16.1 0.00 0.00 0.00 80 1016.8
20260507014854 22 9 8.0 16.1 0.00 0.00 0.00 81 1016.8
20260507014350 22 340 11.3 20.9 0.00 0.00 0.00 81 1016.8
20260507013847 22 22 11.3 17.7 0.00 0.00 0.00 80 1016.8
20260507013344 22 23 9.7 14.5 0.00 0.00 0.00 81 1016.7
20260507012842 23 15 9.7 12.9 0.00 0.00 0.00 80 1016.7
20260507012337 23 15 11.3 17.7 0.00 0.00 0.00 80 1017.0
20260507011835 23 13 14.5 20.9 0.00 0.00 0.00 79 1016.9
20260507011332 23 10 9.7 16.1 0.00 0.00 0.00 79 1016.6
20260507010831 23 38 9.7 16.1 0.00 0.00 0.00 79 1016.8
20260507010327 23 13 11.3 17.7 0.00 0.00 0.00 79 1016.9
20260507005825 23 21 14.5 17.7 0.00 0.00 0.00 79 1017.0
20260507005321 23 54 9.7 17.7 0.00 0.00 0.00 78 1017.0
20260507004818 23 9 12.9 16.1 0.00 0.00 0.00 78 1017.1
20260507004315 23 13 12.9 20.9 0.00 0.00 0.00 77 1016.9
20260507003813 23 35 12.9 22.5 0.00 0.00 0.00 77 1017.0
20260507003308 24 315 12.9 16.1 0.00 0.00 0.00 76 1017.2
20260507002803 24 325 6.4 17.7 0.00 0.00 0.00 76 1017.3
20260507002259 25 14 4.8 14.5 0.00 0.00 0.00 75 1017.3
20260507001757 25 136 6.4 11.3 0.00 0.00 0.00 75 1017.3
20260507001254 25 24 3.2 14.5 0.00 0.00 0.00 75 1017.3
20260507000750 25 64 4.8 6.4 0.00 0.00 0.00 74 1017.5
20260507000246 25 341 6.4 6.4 0.00 0.00 0.00 74 1017.5
20260506235743 25 99 6.4 9.7 0.00 0.00 0.00 73 1017.4
20260506235238 25 90 9.7 14.5 0.00 0.00 0.00 72 1017.6
20260506234736 25 121 4.8 11.3 0.00 0.00 0.00 72 1017.6
20260506234233 25 52 6.4 14.5 0.00 0.00 0.00 73 1017.5
20260506233730 25 336 3.2 11.3 0.00 0.00 0.00 75 1017.5
20260506233226 25 26 11.3 16.1 0.00 0.00 0.00 74 1017.6
20260506232723 25 22 6.4 14.5 0.00 0.00 0.00 75 1017.5
20260506232218 25 23 8.0 20.9 0.00 0.00 0.00 74 1017.6
20260506231716 25 53 14.5 17.7 0.00 0.00 0.00 74 1017.6
20260506231214 25 20 11.3 20.9 0.00 0.00 0.00 73 1017.4
20260506230710 25 6 9.7 22.5 0.00 0.00 0.00 73 1017.5
20260506230207 25 29 11.3 16.1 0.00 0.00 0.00 72 1017.5
20260506225704 25 36 12.9 17.7 0.00 0.00 0.00 72 1017.4
20260506225201 26 22 9.7 24.1 0.00 0.00 0.00 72 1017.4
20260506224657 26 277 12.9 20.9 0.00 0.00 0.00 71 1017.8
20260506224154 26 74 14.5 24.1 0.00 0.00 0.00 70 1017.5
20260506223650 26 13 9.7 14.5 0.00 0.00 0.00 70 1017.5
20260506223146 26 8 9.7 22.5 0.00 0.00 0.00 69 1017.6
20260506222643 26 314 6.4 17.7 0.00 0.00 0.00 69 1017.6
20260506222139 26 355 11.3 17.7 0.00 0.00 0.00 70 1017.8
20260506221637 26 17 9.7 20.9 0.00 0.00 0.00 68 1017.5
20260506221135 27 325 4.8 14.5 0.00 0.00 0.00 66 1017.6
20260506220631 27 3 11.3 16.1 0.00 0.00 0.00 63 1017.6
20260506220127 28 357 8.0 12.9 0.00 0.00 0.00 63 1017.9
20260506215624 27 237 1.6 9.7 0.00 0.00 0.00 60 1017.6
20260506215119 27 97 3.2 9.7 0.00 0.00 0.00 59 1017.9
20260506214616 27 51 8.0 14.5 0.00 0.00 0.00 60 1017.8
20260506214113 27 16 8.0 14.5 0.00 0.00 0.00 63 1018.0
20260506213612 27 328 12.9 14.5 0.00 0.00 0.00 62 1017.9
20260506213108 27 8 9.7 14.5 0.00 0.00 0.00 64 1018.0
20260506212606 26 318 4.8 14.5 0.00 0.00 0.00 66 1018.1
20260506212100 26 41 6.4 16.1 0.00 0.00 0.00 66 1018.2
20260506211556 26 11 9.7 14.5 0.00 0.00 0.00 67 1018.2
20260506211053 26 296 6.4 11.3 0.00 0.00 0.00 66 1018.2
20260506210550 26 19 9.7 12.9 0.00 0.00 0.00 66 1018.4
20260506210047 26 348 6.4 12.9 0.00 0.00 0.00 66 1018.6
20260506205543 26 301 3.2 9.7 0.00 0.00 0.00 67 1018.3
20260506205038 26 81 8.0 12.9 0.00 0.00 0.00 67 1018.3
20260506204537 26 61 11.3 20.9 0.00 0.00 0.00 67 1018.4
20260506204034 26 15 4.8 16.1 0.00 0.00 0.00 68 1018.2
20260506203532 26 47 8.0 16.1 0.00 0.00 0.00 68 1018.4
20260506203028 26 38 12.9 17.7 0.00 0.00 0.00 68 1018.3
20260506202526 25 29 3.2 12.9 0.00 0.00 0.00 70 1018.4
20260506202021 25 39 6.4 16.1 0.00 0.00 0.00 71 1018.4
20260506201520 25 41 11.3 17.7 0.00 0.00 0.00 72 1018.3
20260506201016 25 63 9.7 16.1 0.00 0.00 0.00 72 1018.3
20260506200512 25 336 17.7 22.5 0.00 0.00 0.00 72 1018.3
20260506200009 25 349 11.3 16.1 0.00 0.00 0.00 72 1018.2
20260506195506 25 18 8.0 20.9 0.00 0.00 0.00 73 1018.2
20260506195002 25 42 9.7 17.7 0.00 0.00 0.00 72 1018.3
20260506194500 25 336 11.3 12.9 0.00 0.00 0.00 72 1018.3
20260506193956 25 15 9.7 20.9 0.00 0.00 0.00 74 1018.3
20260506193454 24 54 14.5 20.9 0.00 0.00 0.00 75 1018.2
20260506192950 24 34 14.5 17.7 0.00 0.00 0.00 76 1018.2
20260506192447 24 12 12.9 17.7 0.00 0.00 0.00 76 1018.1
20260506191943 24 31 9.7 17.7 0.00 0.00 0.00 76 1018.2
20260506191440 24 348 9.7 20.9 0.00 0.00 0.00 78 1017.9